STARLINK-1366, 45569

Orbit data source: Space-Track

STARLINK-1366, 45569 is a payload satellite owned by SpaceX/Seattle (US) in LEO that was launched on Wed, 22 Apr 2020 UTC via an FALCON 9 launch vehicle from the Air Force Eastern Test Range (AFETR). Payload-class satellites include a variety of spacecraft equipped with specific instruments for various scientific and technological missions. These include communications satellites like Starlink; space stations such as the ISS; scientific satellites like the Hubble; Earth observation satellites from companies like Planet Labs, Umbra, and HawkEye 360; GPS; miniature CubeSats for education and research; and military/defense satellites.

Loading next visibility...
Identifier
45569, 2020-025AQ
Orbit
LEO
Country
Flag of USUS
Related business
Manufacturer
SpaceX/Seattle
Mission
Partially operational Commercial Communications
Bus & Motor
STARLINK, Unknown motor
Mass
260 kg wet, ~248 kg dry
Launch date (UTC)
2020-04-22 (6 years ago)
Launch vehicle
FALCON 9
Launch site
Air Force Eastern Test Range (AFETR)
Object type
Payload
Rocket body
Debris
Shape & HBR
Box + 1 Pan, 10.1 m
Radar Cross Section
13.562 m², Large (>1 m²)

Expand to show TLE details & history
Last TLE update: 10 hours ago

TLE from 10 hours ago
0 STARLINK-1366
1 45569U 20025AQ  25343.11849812  .00106603  00000-0  21602-2 0  9998
2 45569  53.0518 120.3773 0004562 230.1860 129.8745 15.45575406311893
Epoch: 2025-12-09T02:50Z
TLE epoch observation values (Epoch: 2025-12-09T02:50:38.237Z)
Latitude
-0.00002°
Longitude
-0.3898°
Altitude
432.574 km
Speed
7.652 km/s
True Right ascension
08h 01m 30s
True Declination
0° 00' 00"
Sunlit
Object was in full shadow at epoch
Visualization orbit readout
Latitude
Unknown
Longitude
Unknown
Altitude
Unknown
Speed
Unknown
Apparent Right ascension
Unknown
Apparent Declination
Unknown
Sunlit
N/A
Visualization observer readout
Local Sidereal Time
11:07:29
Azimuth
Unknown
Elevation
Unknown
Doppler factor
Unknown
Orbital elements
Apogee altitude
433.069 km
Perigee altitude
426.858 km
Semi-major axis
6,808.101 km
Eccentricity
0.00046
Inclination
53.0518°
RAAN
120.3773°
Arg. of periapsis
230.186°
True anomaly
129.91461°
Mean anomaly
129.8745°
Eccentric anomaly
129.89455°
Mean motion
3.86371 °/min
Orbital period
93.17 mins
BSTAR
0.0021602
Loading maneuver chart data...
Computing Atmospheric mass density...

Documentation

Showing up to 5 results
|